Portada
METAR-TAF:

METAR-TAF

Aeroports :

Chōfu, Japó

latitud: 35-40N, longitud: 139-32E, altitud: 41 m

Observació

L'informe es va fer fa 13 hores i 36 minuts, a les 07:00 UTC
Vent 1 kt amb direcció variable
Temperatura 8°C
Humitat 46%
Pressió 1026 hPa
Visibilitat 10 km o més
Escasses núvols a una alçada de 3000 ft
Núvols disperses a una alçada de 5000 ft
Cel ennuvolat a una alçada de 7000 ft

METAR: RJTF 130700Z VRB01KT 9999 FEW030 SCT050 BKN070 08/M03 Q1026

Hora: 05:36 (20:36 UTC)


TAF: manca

Observacions i pronòstics meteorològics de més de 4000 aeroports (METAR i TAF).

Les estacions disponibles són els punts grocs i vermells al mapa.

Posi el ratolí al punt desitjat per veure el nom de l'estació.

Feu clic per veure les observacions i els pronòstics meteorològics.

Per canviar el mapa: feu clic els botons verds amb una creu de color negre per apropar; al botó verd amb un guió per allunyar la imatge; o en les fletxes verdes per a mapes adjacents.


METAR-TAF: